Theta_e
336 338 338 338 338 339 338 339 337 336 336 336 336 336 336 335 337 336 338 339 339 337 336 335 333 333 331 331 330 332 333 334 335 337 338 339 340 340 339 338 337 337 338 338 337 342 336 335 331 330 331 331 327 325 324 324 324 323 325 325 316 314 314 313 312 311 310 306 307 307 307 310 313 310 308 307 307 308 306 305 309 307 306 308 308
336 336 336 337 338 338 338 338 337 334 335 335 335 336 335 336 337 336 338 338 338 337 336 335 334 333 331 330 330 332 334 333 333 335 336 339 338 338 338 337 336 336 336 336 337 336 334 333 332 330 328 327 327 326 325 329 323 323 324 321 318 315 313 313 313 311 309 304 303 304 304 303 309 308 309 308 307 307 308 307 307 307 306 306 308
334 334 336 336 337 337 337 337 336 335 335 335 335 336 335 335 337 337 338 338 337 338 337 335 335 334 333 331 332 331 334 337 336 336 337 338 338 337 337 337 337 336 337 336 334 332 331 329 330 330 328 329 324 323 324 324 322 320 320 320 320 317 315 316 314 313 309 309 307 304 300 299 303 306 306 307 307 306 308 308 311 308 308 306 307
331 332 333 335 336 336 336 335 335 335 335 335 335 335 336 335 336 337 337 338 338 338 337 337 337 335 335 334 334 335 334 337 336 336 337 337 337 338 337 337 337 335 335 333 332 332 331 328 327 326 325 328 325 323 320 319 319 318 320 321 319 315 316 317 320 321 317 311 306 307 303 301 299 302 303 306 306 305 307 307 310 308 309 307 307
331 331 333 334 334 334 335 335 335 335 334 334 335 336 336 334 336 337 338 338 338 338 338 337 336 333 333 334 335 335 336 335 333 332 335 336 336 335 335 336 336 334 332 332 331 329 329 327 324 324 323 324 325 322 320 320 320 319 316 314 316 317 317 316 317 317 316 317 312 309 305 304 303 303 302 301 306 305 306 306 310 308 306 305 306
331 331 332 334 334 334 335 335 335 334 334 335 336 337 336 335 336 337 338 337 337 338 338 336 334 332 331 331 329 330 330 331 330 331 332 332 332 333 334 333 332 328 327 329 329 328 325 324 323 323 322 321 320 318 319 319 317 318 317 315 315 317 317 312 309 315 313 315 314 312 312 307 303 303 301 297 304 307 306 305 307 306 305 308 306
332 332 333 333 333 333 334 334 335 334 335 336 337 337 336 335 337 338 338 337 338 338 337 335 333 333 332 331 330 330 329 330 332 332 332 331 332 330 328 328 328 327 326 325 323 322 320 320 321 320 321 321 323 318 318 317 318 319 319 315 314 316 312 308 308 308 308 310 312 311 317 316 309 302 300 298 297 298 303 301 301 301 303 303 304
331 331 332 333 333 333 333 335 335 335 335 337 337 337 336 335 337 338 338 337 338 338 336 335 333 333 332 331 331 330 330 330 331 331 332 331 329 328 327 325 326 325 324 323 322 321 319 318 318 318 318 319 320 317 316 316 318 319 318 315 315 314 309 308 306 307 303 305 313 311 310 310 308 307 306 299 298 296 298 303 304 303 303 304 308
331 331 331 332 333 334 334 335 336 335 336 336 337 337 337 337 338 337 337 337 337 337 335 334 334 334 333 331 330 331 331 331 331 332 330 330 327 325 324 324 323 323 322 321 320 320 321 318 318 318 318 318 320 318 317 317 316 314 313 312 311 312 314 311 309 307 307 307 306 306 304 305 305 306 306 305 302 299 300 299 299 304 304 305 305
332 332 332 333 334 334 335 336 335 335 337 338 338 338 337 338 337 336 336 336 336 336 335 334 334 334 332 331 330 330 331 330 330 329 328 327 324 323 322 322 322 321 320 319 319 320 320 320 319 319 317 319 318 315 314 314 314 314 313 312 311 310 310 310 309 307 307 306 307 306 305 305 303 303 302 302 303 301 299 299 299 300 299 302 305
331 332 333 333 334 335 335 334 335 335 336 337 338 338 338 337 336 335 335 336 335 335 335 334 334 334 332 332 331 330 330 329 328 326 326 326 323 321 321 321 320 320 319 319 319 320 320 319 315 314 316 319 316 313 312 313 312 312 312 311 310 309 308 308 308 307 306 306 305 305 304 304 302 301 300 301 300 298 298 299 300 303 302 302 304
330 331 331 332 332 333 335 334 334 335 336 336 337 337 338 337 336 335 334 334 334 335 334 334 334 333 333 332 331 330 329 328 327 325 325 324 322 321 321 320 318 318 317 316 317 319 320 316 317 315 314 313 313 313 313 312 312 311 310 310 310 310 310 309 306 306 305 305 305 304 303 304 303 302 303 302 301 300 299 298 298 299 301 303 305
330 330 331 331 331 332 333 333 333 333 334 335 335 337 338 337 336 334 333 334 334 334 334 334 334 333 332 332 331 330 329 328 327 326 326 324 322 322 321 318 317 316 316 315 316 318 317 315 313 311 310 312 312 312 311 311 311 311 310 309 309 308 308 307 306 305 305 305 303 303 303 303 303 303 303 301 301 301 298 295 297 300 298 299 300
330 330 330 331 331 332 333 332 333 333 334 334 335 336 337 336 335 334 333 333 334 334 334 333 333 333 333 332 331 330 328 328 327 326 326 326 324 322 322 319 317 316 316 316 318 317 317 317 314 312 311 311 311 310 310 310 309 309 309 308 308 308 308 307 306 306 305 304 304 303 303 302 301 303 302 301 300 299 297 296 297 296 299 297 298
330 330 330 330 331 332 332 332 333 333 333 334 335 336 336 335 334 334 333 333 333 333 333 332 333 333 333 333 331 330 329 328 328 328 327 326 325 323 321 319 318 317 317 316 317 316 316 315 313 311 311 310 310 310 311 309 309 309 309 309 309 308 307 306 305 305 305 303 303 303 303 302 302 302 301 302 302 301 299 298 296 294 293 294 297
329 329 330 330 331 332 332 332 332 333 333 333 334 335 335 335 334 334 333 333 332 332 332 332 332 333 333 332 331 330 329 329 328 328 328 327 325 323 321 320 319 317 316 315 316 316 314 313 312 310 310 310 309 309 309 308 308 308 307 308 308 310 306 305 305 304 303 302 302 302 302 301 303 302 303 302 301 302 301 299 297 295 293 291 293
329 329 329 330 331 331 332 332 332 332 332 332 333 334 335 334 333 333 333 333 332 331 332 333 332 332 333 333 331 330 329 328 327 327 327 326 325 323 322 320 318 317 316 317 315 314 313 311 310 310 309 309 309 309 308 308 307 307 306 306 306 307 307 305 304 304 303 301 300 301 300 300 300 302 302 303 303 301 301 299 297 296 296 292 291
329 330 330 330 331 331 332 332 332 332 332 332 332 333 334 334 334 332 332 331 332 332 332 333 332 332 332 332 331 330 329 329 327 326 326 326 325 323 321 319 317 317 318 317 314 313 313 314 310 309 309 309 308 308 307 307 306 306 307 306 306 306 305 305 305 304 303 302 302 301 301 301 301 300 300 301 300 300 299 300 298 297 296 294 293
328 328 329 329 330 330 331 332 332 332 332 332 333 333 334 334 334 333 331 332 332 333 333 333 332 332 333 331 330 330 330 329 328 327 327 326 324 322 320 319 317 317 317 314 312 312 311 310 310 309 309 308 308 307 308 307 307 305 305 305 305 305 304 303 303 303 303 303 302 302 301 301 301 301 300 300 300 299 299 298 299 298 298 295 294
327 328 329 329 330 330 331 331 331 331 331 332 332 333 333 333 333 333 332 332 333 333 333 333 332 333 332 331 331 331 331 330 328 328 327 326 324 322 319 317 317 316 314 313 312 311 310 309 309 309 308 308 308 308 307 307 306 305 305 305 305 303 303 303 303 304 305 302 301 300 299 298 300 300 301 303 300 301 300 297 298 299 297 297 296
327 328 328 329 329 330 331 332 332 332 332 332 332 332 333 334 333 333 332 332 333 334 334 333 333 332 331 330 330 331 330 330 329 328 326 324 323 321 318 317 316 314 313 312 312 311 310 310 309 309 307 307 307 307 307 306 305 304 304 304 304 303 303 302 303 302 303 302 301 299 299 300 301 300 300 300 301 300 301 301 300 298 297 297 295
327 328 329 329 329 330 331 332 332 331 331 331 331 332 332 333 333 333 333 333 334 334 334 333 333 332 331 331 331 331 330 329 328 326 324 323 321 319 318 317 315 314 313 312 311 311 310 309 308 307 307 307 307 306 306 305 304 304 304 306 304 303 302 301 301 300 300 303 300 299 299 299 300 299 298 298 299 299 296 296 297 298 296 298 298
327 328 328 329 329 330 331 330 330 330 330 331 331 331 332 332 333 334 333 333 335 335 335 334 333 332 331 331 330 330 329 327 326 324 324 322 320 319 318 316 315 314 313 312 311 310 309 308 307 307 307 307 306 306 305 305 304 304 304 304 304 302 301 301 300 300 300 301 300 300 299 301 302 298 299 298 299 299 299 296 297 297 297 297 298
328 328 328 329 329 330 330 329 330 330 330 330 331 331 331 332 333 334 333 333 334 335 334 333 332 331 330 329 329 329 327 326 324 324 322 322 321 319 317 316 315 314 313 312 311 310 309 307 307 307 306 306 306 306 305 305 304 303 303 303 302 302 302 301 301 300 301 300 300 299 299 300 301 298 298 298 298 298 298 296 295 296 297 297 298
326 327 327 328 328 328 329 330 330 330 330 330 331 330 331 332 332 333 334 334 335 334 333 333 331 330 329 328 328 328 326 325 324 323 322 321 320 318 317 316 315 314 313 312 311 310 308 307 307 306 306 305 306 306 305 304 303 303 303 303 302 302 302 301 301 301 306 301 301 299 300 300 299 298 297 297 297 297 298 297 295 296 296 297 298
326 326 326 326 327 329 329 329 330 330 330 330 330 330 331 331 332 334 333 334 334 334 333 332 330 328 327 327 327 326 325 324 324 323 321 320 319 317 316 316 315 313 312 312 310 309 308 306 306 306 305 306 305 305 304 303 303 302 302 302 303 302 302 301 301 302 303 302 301 300 301 300 299 297 296 296 296 296 298 295 295 295 295 295 295
326 326 327 327 327 328 328 329 330 330 330 330 330 330 331 332 332 333 334 333 333 333 332 331 329 328 327 327 327 325 324 324 323 322 321 319 318 317 316 315 314 313 311 310 310 308 308 307 306 306 306 306 305 305 304 303 303 302 302 302 302 302 301 301 301 302 302 302 301 300 298 298 297 296 295 294 294 295 298 295 296 295 295 294 294
326 326 326 326 326 327 328 329 329 329 329 330 330 331 331 332 332 333 333 333 332 332 331 330 329 328 328 327 326 325 325 324 323 321 320 318 317 316 315 315 314 312 311 310 309 308 307 307 306 305 306 306 305 304 303 303 303 302 302 302 302 302 302 301 302 302 302 300 299 296 295 294 294 294 293 292 293 293 295 294 293 294 294 293 292
325 326 326 326 326 326 327 328 329 329 329 329 329 330 332 332 332 332 333 332 332 331 330 330 329 328 327 327 326 325 324 323 321 320 319 317 316 315 314 314 313 312 312 310 309 309 307 306 306 305 305 305 305 305 305 303 303 302 302 302 303 303 302 302 302 302 301 298 295 294 294 295 301 301 302 301 300 299 295 292 292 292 294 292 291
325 326 326 326 326 326 326 328 328 328 329 329 329 330 331 331 331 332 332 332 332 331 329 329 328 328 328 327 325 324 323 322 321 319 318 317 316 315 314 312 312 312 311 310 309 309 308 306 306 305 305 305 305 306 308 306 306 303 302 303 303 302 302 302 302 302 299 296 295 295 301 304 301 299 299 297 295 299 300 297 292 292 291 291 290
325 326 326 327 327 327 327 327 328 329 329 329 329 330 331 331 331 332 332 331 332 330 329 328 328 328 327 326 324 324 322 321 320 319 318 316 315 314 313 312 311 311 310 309 309 308 307 306 306 305 304 305 305 307 303 298 299 302 304 302 302 302 302 302 302 301 297 295 294 294 295 299 301 300 296 296 295 293 293 294 295 298 299 294 291
325 326 327 327 327 326 326 327 328 329 329 329 329 330 330 330 331 331 332 331 331 329 328 328 328 327 326 325 324 323 321 320 319 318 317 316 315 313 312 311 310 310 310 309 307 307 307 305 306 304 304 304 304 305 297 297 298 299 304 303 302 302 303 302 302 301 297 294 293 294 295 298 295 295 295 294 296 294 292 292 292 293 292 293 297
324 326 326 327 327 327 327 327 328 329 329 329 330 329 329 330 331 332 331 331 329 329 328 328 327 326 325 324 323 322 320 319 319 318 316 315 314 312 311 310 310 310 309 308 307 307 306 306 305 304 303 304 302 298 296 297 298 298 299 303 303 303 302 302 302 301 297 295 294 294 296 299 300 301 302 294 293 293 296 295 295 295 295 293 290
323 325 326 327 328 328 328 328 328 329 330 330 330 330 330 331 331 331 330 330 329 328 328 327 326 325 324 324 323 321 319 318 318 317 315 315 314 312 311 310 310 309 308 307 307 306 306 306 305 304 303 302 300 297 296 296 297 297 298 301 304 303 303 303 303 302 298 296 294 294 296 299 300 303 301 295 294 293 293 293 293 292 291 294 296
321 324 325 327 327 328 328 328 329 329 329 330 329 330 330 331 331 329 330 329 329 328 327 326 325 325 324 323 322 320 319 318 317 316 315 314 313 312 311 310 309 309 307 307 306 305 306 306 305 304 302 301 301 296 295 295 295 296 297 301 305 306 304 303 303 303 300 297 296 297 298 300 299 299 301 300 298 297 297 297 295 294 294 293 293
319 321 324 325 327 327 328 328 329 329 329 330 329 330 330 330 331 329 329 329 328 327 326 325 324 323 323 323 321 319 318 317 316 315 315 314 313 311 310 309 308 307 307 307 306 306 305 305 305 304 302 300 299 294 295 295 295 295 298 304 303 304 303 304 303 303 304 301 300 302 301 300 297 297 301 296 296 295 294 295 296 296 296 297 297
322 322 324 326 328 328 329 328 329 329 329 329 329 330 330 329 329 328 328 328 326 325 324 323 323 323 322 322 320 318 317 316 315 314 314 313 312 311 310 309 307 307 307 307 306 305 306 306 305 303 301 299 298 295 294 295 295 296 299 302 303 303 304 303 303 305 306 305 304 303 303 302 300 296 293 290 292 295 295 296 296 296 298 298 298
323 324 324 325 328 329 328 329 328 328 329 329 329 329 329 328 327 327 327 326 325 324 323 322 322 322 321 321 319 317 316 315 315 314 313 312 311 310 309 308 307 306 307 306 305 305 305 306 305 303 302 299 297 296 295 295 295 296 300 302 302 303 304 304 304 305 304 304 305 310 309 304 300 294 291 290 291 295 294 296 297 297 297 298 295
324 324 323 327 328 329 328 328 328 327 328 329 329 329 328 326 326 326 326 325 324 323 323 322 321 321 321 320 319 317 316 315 314 313 313 312 312 310 309 309 309 308 307 306 306 305 304 305 305 304 305 300 298 298 295 295 295 295 300 302 302 302 302 303 303 303 303 303 305 309 309 304 300 294 289 290 291 295 295 295 295 296 296 296 293
323 324 326 328 328 327 327 327 327 327 328 328 329 329 326 326 326 326 325 324 324 323 323 322 321 321 320 319 318 316 315 315 314 314 313 313 312 309 309 309 309 308 307 306 305 304 303 303 303 303 302 299 298 298 296 294 294 295 298 302 302 301 301 301 302 303 303 303 304 303 301 295 294 290 289 289 290 293 294 294 294 294 295 294 294
324 324 320 328 328 328 327 327 327 328 328 329 329 327 325 325 325 325 324 324 325 324 323 322 321 320 319 318 318 317 315 315 315 315 314 312 311 310 309 309 308 307 305 304 304 304 304 302 302 301 300 299 300 298 296 293 294 295 296 299 301 300 300 300 301 302 302 302 302 300 297 295 291 289 289 289 290 290 293 293 292 291 295 294 291
324 321 325 328 328 327 327 327 328 328 328 328 327 325 324 324 324 323 324 325 325 323 322 321 321 320 319 318 317 316 316 316 315 314 311 311 310 310 310 309 307 306 304 302 302 302 302 302 302 301 300 300 303 301 298 293 293 294 295 296 300 299 299 297 301 303 302 301 301 300 297 293 290 290 289 289 290 289 290 294 292 291 291 290 291
324 325 326 327 327 326 327 327 328 328 328 328 326 323 323 322 323 323 325 325 324 323 322 321 320 318 317 317 317 315 315 315 313 312 312 310 310 309 308 306 305 304 302 302 301 301 301 302 302 302 302 301 300 300 297 296 293 293 293 294 296 297 295 299 299 299 298 295 295 298 299 295 290 290 289 290 290 289 291 291 290 290 290 289 291
326 327 326 326 327 326 326 327 327 327 328 327 325 322 321 322 323 325 325 324 323 323 322 320 317 316 316 315 315 314 314 313 311 311 310 309 308 307 306 305 304 303 302 302 301 301 301 300 300 301 301 301 301 299 296 295 295 292 292 293 293 294 294 298 299 298 297 295 292 291 295 293 290 290 289 289 289 290 290 289 289 289 289 290 291
325 326 325 326 326 325 325 325 326 326 327 326 325 322 319 321 323 324 323 323 323 322 321 317 315 315 314 315 314 313 312 311 310 310 308 307 306 306 304 303 303 302 302 301 301 300 299 300 300 300 301 301 301 298 296 294 293 293 292 292 292 291 292 293 296 297 295 294 290 289 289 292 291 290 290 289 289 290 289 289 289 289 292 291 291
325 325 326 327 326 325 324 324 325 326 326 325 325 323 320 322 324 323 324 324 322 321 319 316 314 314 313 313 312 311 311 310 309 309 308 307 306 304 303 303 302 302 301 301 300 299 299 299 299 299 299 300 301 299 297 296 295 295 293 291 291 291 292 293 295 295 293 290 289 289 290 291 291 290 291 290 290 291 289 289 289 290 291 289 290
324 325 323 325 325 323 323 322 322 324 325 324 324 324 324 324 322 323 323 322 320 318 315 314 312 311 311 311 309 309 308 308 307 307 307 306 305 305 303 302 302 301 300 300 299 298 298 298 298 298 299 299 300 299 297 296 295 295 295 294 293 292 293 292 294 294 293 293 291 291 290 290 290 290 290 290 291 292 291 292 291 292 292 292 292
324 322 324 325 324 323 322 322 321 323 324 324 324 324 325 323 322 322 320 319 316 315 314 313 311 310 309 310 309 300 304 306 306 306 305 305 305 304 303 302 301 301 300 299 298 297 297 298 297 298 298 298 298 298 297 296 295 296 295 295 292 292 291 291 292 294 294 295 292 290 290 292 291 291 291 292 292 293 293 292 294 294 294 294 295
322 322 322 324 324 323 323 322 322 324 324 324 324 324 325 323 322 321 318 316 313 310 312 312 311 310 308 307 307 306 307 306 306 305 305 305 305 304 304 303 304 303 302 300 299 298 298 298 298 298 298 297 297 297 298 296 297 294 294 294 292 292 292 291 294 292 294 294 291 289 290 291 292 290 289 290 291 292 292 293 293 293 293 293 293
319 322 324 323 323 324 323 322 323 324 324 324 323 324 324 323 322 320 318 314 311 312 311 310 309 308 307 305 305 306 306 305 305 303 303 303 299 300 302 303 302 299 297 296 296 299 300 299 298 299 300 298 297 299 296 295 294 293 293 293 293 293 292 293 292 291 293 291 291 289 290 289 290 291 290 289 290 291 292 291 292 291 292 293 293
318 319 322 322 322 322 322 322 323 323 323 322 322 322 320 319 320 318 316 314 313 311 310 309 308 307 305 305 305 305 305 305 305 304 303 301 299 295 291 295 298 297 296 294 294 295 295 295 298 297 295 294 294 294 294 294 293 293 292 292 292 292 292 292 291 290 289 289 289 289 288 289 289 291 289 289 289 289 288 289 291 292 293 292 291
Wind_Speed
14 18 17 17 16 14 12 11 11 13 14 15 14 13 12 11 10 10 8 9 8 8 7 8 7 7 5 6 7 5 6 4 5 4 4 4 4 5 5 5 4 3 3 3 3 5 5 5 6 6 6 6 6 5 4 4 3 3 5 5 9 8 4 4 4 8 9 5 6 4 5 4 3 4 4 4 4 4 4 5 4 4 3 1 0
14 13 14 15 15 15 13 11 13 16 14 15 15 13 12 11 11 11 8 9 8 8 8 8 6 7 7 7 6 6 6 5 5 4 4 5 4 4 5 5 5 3 3 3 4 6 6 5 6 6 6 6 5 4 4 3 3 2 3 6 4 8 4 4 6 7 3 5 5 3 3 3 2 3 3 3 3 4 4 4 3 3 3 3 1
15 17 17 16 17 16 14 12 12 15 16 15 13 12 12 11 11 11 8 8 8 9 9 8 5 7 7 5 8 5 3 4 5 5 4 5 4 4 4 4 5 4 3 3 6 6 6 5 6 6 5 5 6 4 4 4 2 2 3 6 5 2 4 4 6 3 5 4 4 5 2 1 1 2 1 1 3 2 2 2 2 2 0 1 1
18 18 18 17 17 16 13 13 13 13 13 13 13 12 11 10 9 11 9 8 9 8 8 6 8 7 7 8 7 6 5 5 6 5 4 5 5 4 4 5 5 4 3 5 5 5 5 6 6 6 6 4 6 5 4 4 3 2 2 4 7 6 3 2 1 1 5 7 3 3 4 4 1 2 2 1 1 3 3 1 2 2 1 3 1
20 19 18 17 17 17 16 14 14 14 14 14 13 13 10 11 10 11 10 10 9 9 9 8 9 8 7 7 6 6 5 5 6 4 5 5 4 4 5 4 4 4 5 5 5 5 5 6 6 5 5 4 4 5 4 4 3 3 4 4 5 7 6 3 1 3 5 4 3 4 2 1 3 3 3 1 0 1 1 3 2 2 1 1 0
24 22 22 21 20 16 14 16 16 15 15 13 13 13 11 10 10 10 9 9 9 10 10 9 9 10 10 9 9 8 8 7 8 8 6 6 6 4 4 4 4 5 4 5 5 5 6 6 5 5 6 6 5 5 4 3 3 4 3 5 4 4 7 5 3 0 3 3 2 2 3 3 5 3 3 2 0 1 3 4 3 3 3 2 1
20 21 20 19 18 19 18 17 17 17 14 11 12 12 12 11 10 12 11 9 9 9 11 10 9 9 11 9 9 10 10 6 6 5 6 5 5 5 4 4 5 6 5 6 6 6 6 6 6 6 5 5 4 6 6 5 4 4 3 5 3 5 6 5 6 3 2 1 1 1 2 1 7 6 2 2 1 2 0 3 1 1 1 1 2
19 20 22 22 22 21 20 19 17 17 14 12 12 11 13 13 11 12 10 10 9 10 11 11 11 10 10 9 8 9 9 9 8 6 5 5 6 6 5 5 5 5 6 5 5 6 6 6 6 6 5 5 5 5 6 4 6 5 5 4 4 3 6 7 5 4 6 2 0 2 3 4 5 2 4 6 5 4 3 1 1 1 1 0 0
22 20 21 21 21 20 19 18 17 15 13 14 13 12 12 10 11 11 11 10 10 11 11 10 10 11 10 9 8 6 7 7 6 5 6 6 7 5 5 5 5 5 5 5 5 5 4 5 5 5 5 4 5 5 4 5 5 6 6 6 5 5 5 4 5 3 4 2 2 3 4 4 4 3 2 2 2 3 1 3 2 1 1 2 4
20 23 22 21 21 20 19 18 16 14 13 13 11 11 11 10 12 13 12 10 10 11 11 10 10 10 10 9 10 9 8 7 7 7 7 7 7 5 5 5 5 5 4 4 4 4 4 3 3 4 5 5 5 6 6 6 5 5 5 5 5 7 5 7 6 5 5 4 4 3 4 3 4 5 5 4 3 3 4 3 4 5 4 4 3
17 19 21 21 20 20 18 19 18 14 12 13 13 12 12 12 13 14 13 10 11 12 11 11 10 10 10 10 11 12 11 10 9 8 7 7 7 6 6 5 5 5 5 3 4 4 5 5 6 6 6 6 6 6 6 6 5 5 5 5 6 7 6 7 6 5 6 6 6 7 6 6 4 2 1 3 3 2 4 4 1 3 5 2 4
17 17 17 17 15 15 16 17 17 16 14 14 13 12 12 13 13 14 13 12 12 11 11 11 10 10 9 11 11 11 12 10 11 11 9 9 8 8 6 6 5 5 5 5 5 5 6 5 5 5 6 6 6 6 6 6 6 5 5 5 5 5 6 7 6 7 6 7 6 6 6 5 5 5 3 4 5 2 3 2 1 2 1 2 2
18 17 16 16 18 18 17 17 17 16 16 17 17 13 13 13 15 16 14 12 13 12 12 11 11 10 10 10 10 10 10 10 10 10 9 9 8 8 8 7 6 6 6 6 5 5 6 6 5 6 6 6 7 6 5 5 5 5 6 5 6 6 6 6 7 5 6 7 7 5 6 6 6 3 4 4 4 6 5 4 2 1 0 2 0
19 18 19 19 19 19 19 19 19 16 17 17 17 14 13 13 15 16 14 13 12 12 12 12 11 10 10 10 10 10 10 10 9 10 9 8 8 8 8 8 7 6 6 6 6 6 5 5 5 5 5 5 6 6 6 5 6 6 5 6 6 5 6 7 7 6 7 6 6 7 6 6 5 5 5 6 6 5 5 3 1 2 1 1 1
18 19 19 19 20 21 19 19 18 16 17 17 16 15 13 13 15 16 16 14 14 13 12 12 10 10 10 9 10 9 10 9 9 8 9 9 7 7 7 7 7 6 6 5 6 7 7 6 6 5 5 6 6 6 6 6 6 6 6 6 5 5 7 7 7 7 8 7 6 6 6 6 6 6 6 6 5 5 4 3 4 2 2 4 4
17 18 18 19 20 18 17 17 16 15 17 15 17 16 14 15 16 17 16 15 14 13 12 12 11 10 10 10 11 11 9 8 8 8 7 8 8 8 8 8 7 7 6 6 5 7 7 7 6 6 5 6 7 7 7 6 6 7 6 6 6 4 7 8 6 7 8 7 6 5 7 5 5 6 5 5 5 4 6 5 6 5 5 1 3
18 18 17 18 17 17 18 18 15 15 16 17 18 18 17 16 15 16 15 14 14 13 12 12 11 11 11 10 11 11 11 11 10 11 10 9 8 8 8 7 8 7 7 6 6 6 7 7 7 6 5 6 8 7 7 6 6 6 7 6 7 5 7 6 6 7 6 6 6 6 6 6 5 4 4 5 5 4 5 6 6 5 3 5 2
23 21 20 21 19 18 15 15 17 18 18 17 18 16 14 14 16 16 15 16 15 13 13 12 12 12 10 11 11 11 10 10 10 11 10 9 8 8 7 8 9 8 7 6 7 7 7 7 7 6 5 6 7 7 7 7 7 6 6 6 6 6 7 6 5 6 6 6 6 6 5 6 4 5 4 4 4 3 4 5 5 5 6 6 2
22 21 19 18 17 17 18 18 17 16 16 17 16 15 13 13 15 15 16 15 14 12 11 11 11 10 9 11 12 11 10 9 9 10 9 9 10 9 9 9 9 8 8 8 8 7 7 7 7 6 6 7 7 7 7 7 6 7 6 7 6 6 7 6 5 6 5 6 6 6 4 4 4 4 3 3 3 4 3 4 4 5 5 4 3
22 19 18 18 19 19 19 18 17 17 16 15 15 13 14 14 16 15 13 12 13 13 12 12 12 10 10 10 10 10 10 10 11 10 10 9 10 10 10 10 9 8 8 8 8 8 8 7 6 7 7 7 7 6 7 7 7 6 6 7 6 7 7 6 5 4 4 5 6 5 4 4 3 3 2 1 0 1 3 4 4 4 4 4 4
21 19 18 18 18 18 17 17 16 14 13 14 14 15 14 14 15 15 16 16 16 14 13 12 11 11 12 12 12 11 11 10 11 10 10 10 9 9 9 9 9 8 9 8 8 9 8 8 7 7 7 7 7 7 7 7 7 7 6 6 7 7 6 5 5 5 4 5 6 5 4 3 3 3 1 1 2 1 1 3 4 5 4 3 3
21 20 19 18 18 17 16 14 12 13 14 14 13 13 13 14 15 15 14 14 15 14 13 12 11 11 13 13 12 10 11 10 11 11 11 10 9 10 10 10 10 9 9 9 9 8 8 8 7 7 7 7 7 8 7 7 8 7 6 6 7 7 6 5 5 5 4 4 5 5 4 4 4 4 4 4 3 5 3 4 3 3 2 1 2
21 21 19 19 19 19 18 18 17 17 16 15 14 14 14 14 15 14 15 15 15 14 12 12 12 12 13 13 12 11 11 11 12 10 10 10 10 11 10 10 10 9 8 9 9 9 9 9 8 8 8 7 7 8 7 7 7 7 7 6 6 6 6 6 6 5 5 5 6 5 4 2 2 4 3 4 4 4 3 5 4 3 3 1 1
22 19 16 17 17 17 17 16 15 13 13 15 14 14 14 13 13 13 15 15 14 13 12 12 12 13 13 13 12 11 12 12 12 10 11 10 11 11 10 10 10 9 9 8 9 10 9 9 8 8 8 7 7 7 6 6 7 7 7 7 7 6 6 5 6 5 5 5 5 5 4 3 3 3 2 3 3 4 3 4 4 4 4 3 3
20 18 18 17 18 18 18 17 17 15 14 14 14 14 14 14 13 13 13 14 14 12 13 13 13 14 13 13 13 12 13 12 12 10 11 11 11 10 9 11 10 9 9 9 8 8 8 8 8 8 7 6 6 6 6 6 6 5 6 6 7 6 5 5 6 6 6 5 5 5 4 4 3 5 4 3 4 4 3 4 4 4 3 3 3
20 18 18 20 19 18 17 16 15 16 16 15 14 14 14 13 14 13 13 14 14 12 13 13 14 14 13 14 13 12 13 13 12 11 12 11 11 10 9 9 10 10 9 8 9 7 7 7 6 7 6 6 6 5 6 6 6 5 6 6 6 6 5 5 5 5 5 5 5 5 4 4 5 6 4 3 3 4 4 4 4 4 3 3 4
21 20 18 18 18 20 19 18 17 17 15 14 15 14 14 13 14 13 13 13 13 13 13 14 14 14 13 13 13 12 12 12 11 11 10 10 10 10 10 10 10 9 9 9 8 8 7 8 8 8 7 8 7 6 7 7 6 6 7 7 7 6 5 5 5 5 5 4 5 5 5 5 6 5 5 3 3 4 4 4 4 4 3 4 4
18 18 20 20 20 19 18 17 16 15 14 14 13 13 14 15 15 13 13 12 11 13 13 14 14 14 13 13 12 12 12 11 10 10 11 10 10 10 10 10 9 9 9 10 9 9 8 8 8 8 7 7 7 7 7 7 6 7 7 7 7 6 6 5 5 5 4 5 5 6 6 5 6 5 5 3 4 3 3 4 3 3 4 4 4
21 21 20 19 19 18 17 17 16 15 15 15 14 13 12 11 12 12 13 13 13 14 14 14 14 14 13 13 12 11 11 11 11 11 11 11 10 10 10 10 9 9 8 9 8 8 8 8 8 8 8 7 8 7 7 7 7 7 7 8 7 7 7 6 5 5 5 6 5 5 5 5 5 8 8 6 5 4 4 4 3 3 3 3 3
21 20 20 19 20 19 18 18 16 17 16 15 14 14 15 14 13 12 12 12 14 14 14 14 14 13 12 13 12 11 12 12 12 12 11 11 10 9 10 9 9 10 9 9 8 8 9 9 9 9 8 8 7 6 9 13 10 8 7 7 7 7 7 6 6 6 6 6 5 4 4 10 10 10 8 7 6 6 5 4 3 3 2 3 3
22 21 20 18 18 18 17 18 18 18 18 16 15 15 14 13 13 13 13 12 13 14 14 14 13 13 13 12 12 12 12 12 12 12 11 11 11 9 9 9 9 9 10 9 8 9 8 7 8 9 9 8 7 7 14 13 13 13 8 7 7 7 6 6 6 7 7 6 4 4 4 6 7 7 4 5 5 6 6 5 3 2 2 1 2
15 14 15 17 17 17 17 18 19 18 17 14 14 14 14 14 13 13 12 12 13 14 14 14 13 13 13 13 12 12 12 12 12 12 12 11 9 9 9 9 8 9 8 8 8 8 7 7 7 8 8 7 6 10 15 13 13 13 10 8 7 6 6 6 6 7 6 6 5 5 3 3 3 4 3 3 2 2 3 3 3 3 3 1 2
19 19 17 16 17 18 19 18 16 16 15 15 15 14 15 14 13 12 11 13 14 14 14 13 13 14 13 13 12 13 12 12 12 12 11 10 10 9 9 9 9 8 7 8 7 8 7 7 8 8 7 6 4 10 13 14 14 14 14 10 7 6 7 6 6 7 7 6 6 5 4 3 2 7 4 2 2 3 4 4 3 3 5 6 7
19 20 19 18 15 14 15 16 16 16 16 14 13 14 12 11 11 11 13 13 14 14 13 13 13 14 14 13 13 13 13 12 12 12 11 10 10 10 9 8 8 8 8 8 7 9 7 6 7 8 6 6 6 10 14 14 13 13 14 10 6 7 6 6 7 7 7 7 7 7 6 4 3 3 3 4 3 3 3 1 2 3 4 6 7
15 16 16 17 16 16 15 14 15 15 14 13 12 12 12 12 12 13 12 13 13 13 13 14 14 14 14 13 14 13 12 12 12 12 11 11 10 9 9 8 9 10 9 9 8 8 7 7 7 8 8 7 8 14 15 14 13 12 10 6 4 5 6 5 6 6 8 8 8 8 8 7 5 4 3 4 4 3 3 3 3 3 4 6 6
9 12 15 15 16 17 17 16 14 14 14 14 14 13 14 12 12 14 13 13 13 13 12 13 14 14 15 14 13 13 12 11 11 11 12 11 10 10 10 8 8 7 6 7 6 7 7 7 8 9 9 9 8 13 15 15 14 12 11 6 5 3 4 6 5 5 6 7 7 7 6 6 8 7 7 8 6 5 3 1 1 2 3 4 6
13 11 12 15 16 16 15 14 14 15 14 13 13 13 13 12 13 13 14 13 13 13 13 13 13 13 14 14 14 13 12 12 11 11 11 11 11 9 8 8 9 8 8 8 7 7 7 8 9 10 11 10 10 12 17 18 17 15 11 7 6 6 4 3 5 3 5 5 5 6 7 7 7 6 9 9 7 4 1 1 1 3 4 3 2
14 13 10 10 12 14 15 16 16 15 14 12 12 13 13 13 13 12 13 13 14 13 13 13 13 13 13 12 13 14 12 11 11 12 11 9 8 7 8 8 10 9 8 8 7 7 7 9 11 11 11 11 9 11 16 14 14 14 10 8 7 7 8 8 8 8 8 6 3 7 6 6 8 7 10 10 9 5 3 2 0 1 3 2 2
17 15 13 13 14 17 16 16 16 16 14 14 14 15 14 13 13 13 12 13 13 13 13 14 13 12 12 12 12 13 13 12 12 11 10 10 9 8 7 7 8 8 7 7 7 8 7 6 8 10 10 12 9 9 14 15 14 13 9 6 7 6 7 6 7 7 8 7 8 10 12 8 8 9 12 11 10 7 5 3 2 0 1 1 1
16 15 15 15 16 15 15 17 17 17 15 15 15 14 14 13 13 12 12 13 13 13 12 12 13 13 12 11 10 10 9 11 12 10 9 9 7 7 8 8 7 7 7 7 6 7 8 6 7 9 9 9 10 8 9 13 13 13 12 8 6 7 7 6 5 8 8 6 7 5 7 10 12 13 12 12 10 9 5 3 2 1 0 2 2
6 12 14 15 16 18 18 18 16 16 14 14 13 14 13 13 13 12 12 12 12 12 13 12 12 12 12 12 11 13 13 11 11 11 9 8 7 8 9 9 9 7 7 6 7 7 7 6 5 6 8 7 9 10 9 13 13 13 13 12 6 5 4 4 4 7 8 8 7 7 6 9 13 14 13 11 10 8 6 4 3 3 2 0 2
10 12 15 14 13 13 15 14 14 16 15 13 13 14 13 12 13 13 10 10 12 12 12 12 12 11 11 11 12 11 11 10 10 9 9 8 7 8 9 9 8 8 8 8 7 7 7 7 6 6 6 7 7 10 8 11 13 13 13 13 8 6 6 5 5 7 7 7 8 8 6 8 13 15 14 13 11 9 7 3 4 6 4 2 2
10 9 13 16 14 15 16 15 14 15 14 14 15 15 14 13 13 13 12 12 12 13 13 13 12 11 11 11 11 11 10 7 7 9 11 11 9 9 8 8 9 9 10 9 9 8 8 7 7 6 6 6 7 8 12 11 11 12 12 11 10 7 7 4 5 5 5 4 1 1 4 11 14 15 14 14 12 12 8 5 7 6 5 3 1
11 14 13 15 16 14 14 15 15 14 14 15 16 14 13 15 14 12 12 13 13 13 13 13 11 11 11 10 10 11 10 9 11 10 9 10 9 8 8 7 9 10 10 10 8 8 8 8 8 7 7 7 7 7 9 13 11 13 12 13 12 10 10 4 4 5 4 4 1 1 3 11 14 15 15 15 14 12 8 9 8 7 6 3 1
15 15 15 15 17 17 16 15 14 16 14 15 15 17 16 15 12 12 13 13 13 13 12 11 12 12 11 11 10 10 9 9 10 11 11 10 9 9 9 7 9 8 9 9 8 8 8 8 7 8 7 5 6 5 5 8 12 14 14 13 12 10 8 7 5 3 3 3 3 7 9 13 16 15 16 13 9 9 8 7 8 8 5 2 4
16 14 15 16 16 16 17 16 15 15 14 14 14 16 17 14 13 12 13 13 13 13 12 12 12 12 12 11 10 9 9 9 10 9 10 10 12 11 10 8 8 8 8 9 9 8 8 8 8 7 7 6 6 7 8 8 8 10 11 14 14 13 9 6 5 5 6 5 3 3 3 9 11 9 6 5 5 5 7 8 9 7 4 5 4
16 16 15 15 16 15 16 16 14 12 13 13 14 13 14 12 12 11 12 12 12 12 12 11 11 9 9 10 11 9 8 8 8 7 7 7 7 8 9 9 9 9 9 8 8 8 8 8 8 8 7 6 7 7 8 7 7 8 9 9 9 8 8 7 5 5 5 4 3 2 2 6 8 10 7 5 5 5 5 5 5 5 6 5 5
9 11 14 15 16 15 14 13 12 11 11 13 12 13 11 12 12 12 12 13 13 13 12 11 11 10 9 10 9 11 12 8 8 9 8 7 6 8 9 10 11 11 10 9 9 9 9 9 9 8 7 7 8 7 8 9 9 9 8 7 7 7 7 7 7 6 5 3 3 4 4 4 6 4 3 2 2 4 5 5 5 5 6 6 7
6 10 12 13 14 15 14 12 11 10 10 11 11 11 12 11 11 12 14 13 12 13 13 12 11 9 8 8 9 10 9 9 8 7 7 9 11 11 10 8 5 7 9 11 11 9 9 8 8 9 9 8 7 9 10 10 12 12 11 9 8 8 8 7 8 8 4 3 3 3 2 3 4 5 4 4 4 5 5 6 6 6 5 5 5
15 4 9 10 12 14 13 12 10 9 9 9 9 9 9 10 10 9 11 13 12 11 11 10 9 9 8 8 8 8 8 8 8 8 7 4 2 4 5 6 7 9 11 10 9 10 11 9 8 8 9 11 11 10 12 16 16 15 15 15 14 13 12 10 9 12 8 5 6 6 5 5 5 5 6 6 6 6 6 6 6 7 6 6 6
9 12 2 11 11 12 12 11 10 10 11 10 9 10 10 10 11 11 12 13 13 11 9 9 9 8 10 9 9 8 7 7 7 7 7 7 5 3 5 5 9 9 11 11 12 11 11 11 10 8 7 9 10 11 16 17 16 16 16 15 14 14 14 12 12 9 5 7 7 7 7 6 7 6 5 6 6 6 6 6 6 6 6 7 6
Wind_Direction
162 157 155 152 151 153 153 148 144 150 155 160 164 169 170 167 161 163 162 160 157 156 149 148 133 121 122 134 132 141 146 147 138 135 135 141 139 140 135 133 130 139 165 158 144 135 121 119 102 93 92 103 110 124 125 106 111 124 113 108 113 106 98 103 111 111 107 63 49 57 43 29 52 61 61 68 78 78 66 62 49 43 46 30 211
146 145 146 146 151 154 154 152 148 154 163 164 168 169 167 163 165 165 162 162 159 155 151 151 145 159 152 157 138 146 147 149 146 156 157 147 147 146 141 139 139 157 173 192 140 116 120 112 106 115 110 113 119 131 120 114 103 90 95 112 126 129 128 156 147 114 61 133 129 92 29 13 1 41 32 43 75 79 97 94 77 66 21 357 66
155 152 151 155 155 156 156 154 158 160 162 167 169 164 166 167 167 165 165 159 157 158 155 152 142 146 140 148 139 137 145 148 147 159 159 149 151 150 147 141 149 165 195 150 110 108 115 117 106 104 104 118 120 119 109 102 124 151 122 127 135 110 115 159 168 124 139 123 120 95 148 80 337 8 350 40 96 72 72 87 101 75 294 308 354
155 152 155 158 157 155 154 157 160 157 164 168 168 166 170 175 164 163 161 158 161 162 151 136 138 132 121 128 133 136 151 143 128 144 142 140 156 167 150 150 159 172 151 114 110 112 116 107 100 103 106 121 132 131 123 127 113 84 91 127 132 132 138 168 196 126 123 138 150 193 181 125 113 274 198 274 157 140 115 125 132 186 234 272 5
156 156 153 155 158 163 162 158 157 164 173 172 166 168 177 176 166 161 161 166 162 159 147 135 125 118 121 117 117 103 107 120 124 143 159 162 150 154 164 162 165 158 139 125 112 104 105 106 101 102 91 75 118 124 138 151 135 119 107 98 133 149 143 131 35 106 130 171 145 108 80 124 208 204 122 286 232 132 219 178 199 214 230 251 185
160 161 161 163 162 155 151 158 165 172 177 173 168 169 169 172 164 161 163 164 161 160 150 145 146 143 144 144 145 146 149 152 163 167 168 164 162 154 145 142 123 102 99 104 99 90 94 100 100 96 93 90 105 108 96 85 90 99 114 121 112 142 140 123 115 64 128 129 151 163 167 171 158 184 98 227 328 227 201 209 222 206 235 241 306
162 160 158 157 158 158 162 166 169 173 175 166 169 168 167 172 162 165 166 164 163 160 156 150 149 152 154 156 153 155 150 161 158 161 152 152 141 132 113 91 98 102 89 97 99 101 101 100 100 98 98 94 88 91 91 94 82 76 71 73 116 134 120 126 143 153 60 26 80 133 149 135 136 128 196 111 156 308 84 190 178 264 106 97 116
162 163 162 162 163 162 167 169 171 174 167 166 168 168 169 173 161 165 163 165 168 162 162 160 155 154 152 153 153 152 156 155 159 157 146 141 127 124 115 98 93 99 102 93 100 103 106 107 108 107 103 101 100 105 112 106 86 71 74 89 75 96 125 133 151 157 139 200 177 122 89 90 123 104 126 167 157 163 251 307 338 235 86 311 308
162 164 164 164 165 168 164 168 172 165 165 169 170 170 166 163 160 162 164 164 170 168 164 163 158 157 156 154 148 146 141 141 140 134 132 130 122 118 110 110 96 90 96 101 97 103 106 116 119 116 101 102 100 96 88 90 99 99 87 75 83 77 89 115 109 120 106 170 125 68 84 83 79 76 86 77 131 135 215 185 243 315 9 306 279
166 164 165 167 167 167 168 164 164 169 169 165 164 163 166 160 164 166 166 168 169 170 163 159 157 157 157 157 148 143 137 132 131 133 133 130 122 120 116 112 109 100 99 103 104 108 114 107 102 110 122 110 102 102 97 91 90 94 102 106 99 91 89 96 108 113 102 82 86 112 81 44 42 28 22 24 37 80 149 197 209 185 221 274 258
167 168 167 167 168 163 158 163 169 164 164 164 165 166 167 164 165 168 168 167 169 169 165 161 158 161 160 157 153 149 148 142 139 138 137 133 131 132 127 121 114 118 112 116 124 120 105 101 110 117 117 115 108 104 106 106 101 103 105 98 95 103 105 103 95 92 92 82 77 86 91 96 124 116 81 59 99 75 52 14 344 161 194 234 262
165 166 166 158 152 156 159 164 166 165 162 167 169 164 165 164 164 163 168 169 168 170 167 163 159 162 159 160 155 154 152 153 152 151 152 146 144 143 136 123 125 127 129 131 134 128 112 116 115 114 115 116 117 118 115 111 111 107 98 98 95 93 95 94 96 90 85 85 81 84 93 97 79 93 127 99 87 108 115 133 111 318 359 204 282
164 164 159 159 160 162 166 167 167 167 167 169 171 167 166 165 165 166 170 168 169 170 169 165 162 165 162 161 153 154 154 154 153 152 154 149 153 150 150 149 148 142 154 148 158 137 128 122 120 120 120 123 126 120 118 112 105 96 99 95 96 94 98 100 96 97 95 94 100 85 86 73 69 67 81 93 85 94 90 72 326 105 93 298 296
166 164 165 166 167 168 168 168 172 169 167 168 172 167 167 169 168 169 170 169 167 170 170 167 168 165 164 158 155 156 157 157 158 155 158 155 158 160 157 156 156 161 159 160 156 135 124 129 126 122 120 120 120 118 114 111 107 108 104 101 100 105 96 93 96 95 89 91 88 80 69 76 69 62 69 65 64 62 53 60 348 6 106 313 51
165 166 168 169 169 169 170 171 171 169 167 167 171 171 166 170 170 171 170 172 170 172 171 171 166 166 164 156 155 158 158 161 161 160 158 158 161 153 149 151 155 162 150 149 140 124 127 124 123 118 117 116 112 109 105 103 108 104 104 107 98 95 94 93 87 90 88 85 81 87 81 65 67 62 64 60 69 81 95 83 90 67 359 16 44
165 168 170 170 171 170 167 168 170 168 167 168 171 173 170 176 176 175 172 169 171 173 176 171 169 168 165 161 159 161 161 159 156 158 159 160 159 154 152 154 151 146 143 137 131 126 128 127 124 123 122 115 108 110 114 114 113 111 108 107 104 102 98 91 93 90 91 93 93 86 76 70 65 61 60 59 62 82 81 85 88 90 110 39 347
164 168 168 171 172 171 169 168 167 166 167 171 174 177 176 172 173 173 171 169 174 178 175 173 171 169 170 163 160 162 163 163 161 159 158 155 154 152 153 149 144 146 145 139 131 130 128 127 127 126 124 118 113 117 119 119 117 116 120 116 112 107 96 97 95 96 99 98 94 95 100 88 71 64 48 44 44 53 80 95 100 105 125 113 51
166 168 170 172 170 168 166 168 168 171 171 170 174 176 172 169 172 172 171 172 175 177 176 175 172 173 169 165 163 163 161 158 153 154 151 150 152 151 142 144 154 153 144 139 134 132 130 129 130 131 126 120 124 124 124 126 123 119 120 116 120 111 103 95 94 96 98 103 99 90 91 94 92 77 72 57 57 66 79 97 109 105 103 101 137
165 168 170 168 165 165 166 170 174 170 168 169 170 168 169 167 172 172 175 174 173 174 175 174 172 172 167 166 162 161 158 154 152 153 155 155 157 155 149 149 146 144 136 138 137 131 132 136 137 137 131 131 130 131 131 127 126 122 119 119 113 105 104 104 104 103 106 99 99 95 91 94 104 99 82 63 52 66 64 81 94 96 89 104 98
164 165 167 168 167 166 167 168 168 168 169 167 165 166 166 167 167 170 169 170 173 177 176 173 171 166 162 160 162 161 160 156 158 158 160 160 159 154 147 145 146 137 137 140 137 137 141 143 145 140 137 137 137 138 134 130 124 125 128 120 118 110 109 113 112 107 113 109 104 103 106 116 102 99 97 84 122 83 101 82 89 98 96 99 97
163 162 166 167 165 164 166 168 167 165 162 160 165 169 167 166 169 168 171 174 176 176 174 172 166 165 160 164 163 163 162 159 160 159 158 157 151 146 144 141 134 138 141 142 142 144 146 147 146 144 145 146 141 141 138 131 130 133 130 124 121 118 120 125 119 113 104 107 107 107 100 88 104 81 20 45 58 341 32 53 74 92 85 91 97
161 164 165 164 162 161 160 160 159 161 164 166 166 165 165 169 172 172 170 174 174 174 174 166 166 164 162 162 162 162 161 157 158 156 155 152 144 144 142 140 141 146 147 148 147 148 148 149 148 149 150 148 144 143 143 137 139 139 133 129 128 127 126 128 121 119 117 116 112 98 80 75 81 96 83 59 59 53 80 74 29 99 105 85 136
163 165 165 163 161 160 160 162 165 170 170 165 163 168 171 172 173 175 174 176 174 173 169 164 164 163 161 161 160 161 157 155 155 154 153 147 141 141 143 142 144 149 151 152 153 153 154 154 154 155 153 151 149 148 149 144 145 143 140 137 135 132 133 132 125 130 125 116 107 109 113 100 76 78 70 57 49 41 45 71 35 11 53 60 52
163 164 159 158 156 155 157 158 162 165 167 167 168 170 173 175 175 175 176 173 170 171 168 163 160 159 159 159 161 156 154 155 156 154 150 148 142 141 143 144 148 154 155 157 156 157 156 159 158 157 157 153 152 151 150 146 145 144 142 137 135 135 135 134 133 128 126 123 126 122 144 136 106 97 73 73 54 54 47 67 61 36 59 31 28
159 158 156 154 154 157 161 164 165 168 169 168 169 171 174 177 176 175 174 171 171 168 166 163 159 158 160 161 160 157 156 158 156 153 150 148 144 140 144 148 152 158 161 157 159 157 156 158 157 156 155 153 155 152 143 140 138 138 134 132 135 135 137 138 136 139 139 135 134 137 155 147 115 95 79 66 54 48 51 69 54 35 36 25 15
155 154 154 156 160 162 163 163 165 168 170 170 169 171 174 176 177 172 171 170 168 165 164 159 159 159 163 164 161 158 158 159 157 154 149 148 144 143 148 155 158 162 160 160 156 157 154 153 151 154 152 153 152 143 141 142 142 136 128 132 133 135 140 142 144 144 142 145 143 150 156 134 115 120 117 77 53 38 49 74 57 33 29 13 23
156 157 158 156 160 165 165 167 168 167 168 169 169 171 173 173 175 172 171 167 162 162 161 158 159 161 163 164 161 161 159 158 157 151 146 146 147 151 157 162 166 162 157 155 155 150 154 154 158 155 154 154 152 145 146 146 145 139 137 136 139 138 140 145 143 142 139 132 125 108 90 93 95 98 94 88 78 53 49 49 57 58 22 37 23
155 155 159 162 162 164 166 166 163 164 164 164 168 172 171 173 176 171 168 164 163 160 159 159 160 163 163 161 160 157 158 158 150 146 145 146 151 160 164 165 162 159 155 157 159 158 158 155 156 155 154 153 150 149 150 152 149 147 142 143 145 141 142 138 131 130 122 111 105 99 103 105 106 107 115 113 101 98 73 63 23 50 40 40 30
158 159 162 162 162 162 162 163 164 161 162 165 168 169 169 171 174 172 166 163 160 159 158 160 163 164 163 158 155 155 155 154 149 145 146 152 161 166 166 165 162 157 155 157 155 153 153 154 153 155 155 156 155 159 160 159 152 149 144 146 143 143 141 135 130 125 112 107 102 108 110 121 117 111 109 111 111 113 105 90 36 54 44 50 30
159 160 161 165 163 163 163 162 162 165 167 169 169 171 172 172 174 170 165 158 159 161 159 162 164 162 159 156 153 153 155 155 152 150 152 160 165 168 167 165 164 159 155 154 151 155 157 158 156 156 156 159 162 162 164 160 154 150 148 143 138 142 140 138 138 127 111 112 118 120 131 123 118 118 117 115 112 105 112 119 132 96 90 63 51
159 158 161 163 164 163 159 160 166 170 172 171 171 169 170 174 172 168 165 159 158 158 160 161 161 158 155 153 153 155 155 158 156 151 157 165 169 166 166 165 163 160 154 153 151 158 161 160 157 159 160 163 165 164 159 154 150 146 141 138 140 143 141 142 142 133 127 125 117 117 117 123 122 124 129 144 144 147 139 142 122 134 125 121 89
148 149 154 158 161 163 164 166 171 172 168 167 167 166 169 175 171 168 161 157 157 158 160 161 156 154 154 153 155 154 155 157 156 158 163 167 164 163 166 164 158 156 153 150 154 163 160 159 157 159 161 162 162 156 154 148 147 144 139 142 143 146 147 144 147 132 131 129 134 128 133 132 133 139 145 139 157 163 178 186 199 195 220 237 183
152 159 164 167 168 170 171 171 166 163 165 170 166 166 172 171 168 164 152 160 160 160 160 159 155 154 154 154 155 155 155 158 162 161 162 164 164 166 166 159 160 158 149 153 160 159 162 158 156 156 153 145 126 154 146 147 150 148 147 146 148 147 144 148 149 138 140 141 139 141 152 161 166 161 148 162 180 212 230 229 247 277 283 250 240
165 163 167 171 170 174 170 165 163 163 165 163 165 168 167 163 158 156 158 161 160 161 160 157 156 158 157 155 156 157 159 162 162 161 162 165 168 169 166 158 152 155 153 154 154 163 161 152 154 146 133 124 129 151 142 144 144 144 149 145 145 145 149 153 160 147 149 150 153 154 164 176 195 197 170 189 202 220 234 251 264 270 265 272 259
166 163 166 167 170 169 165 161 161 159 157 156 159 161 163 163 161 161 161 160 161 161 160 158 158 158 157 158 158 160 160 163 163 162 163 168 169 163 161 160 159 161 160 161 160 162 164 147 143 136 129 138 154 159 144 134 122 113 111 99 125 147 151 157 163 157 157 163 164 166 170 172 167 179 208 187 184 196 184 209 230 243 245 250 252
185 162 165 163 166 167 167 166 157 151 154 156 158 159 163 164 159 161 162 162 161 159 158 158 158 159 160 159 157 158 158 161 162 163 166 170 171 168 162 158 153 155 150 144 145 150 156 145 140 139 138 148 158 161 142 133 122 131 129 117 99 110 157 159 165 169 163 169 168 165 164 167 169 175 173 167 170 166 157 153 199 254 273 262 250
190 175 168 166 164 163 158 148 150 155 154 153 152 156 157 155 162 165 163 163 160 159 159 160 157 158 159 157 155 156 160 160 162 165 171 173 171 167 160 152 151 157 155 157 158 159 152 143 143 145 149 159 164 167 143 143 145 160 141 131 119 102 85 131 162 136 122 138 163 165 165 181 173 173 175 171 161 141 123 130 21 340 310 310 326
184 183 163 151 152 146 145 148 150 153 152 146 147 151 155 157 162 164 163 161 162 161 158 157 156 157 158 156 153 154 158 161 164 171 173 174 169 163 159 155 155 157 160 163 155 146 152 149 150 155 160 154 155 176 156 147 155 165 153 144 140 135 145 157 146 142 122 123 160 167 179 162 174 172 169 155 159 147 157 147 99 27 328 343 349
177 172 157 149 150 149 147 146 147 150 155 150 149 151 152 157 158 161 160 161 164 159 157 157 156 156 157 157 156 157 159 163 169 173 173 173 171 163 153 152 153 153 154 149 149 150 154 148 145 148 148 147 159 172 165 165 170 169 165 151 146 152 155 170 160 146 146 157 189 198 192 186 165 167 166 166 163 163 169 174 153 134 289 339 306
170 164 155 150 145 137 142 148 153 156 153 151 150 153 153 154 157 155 160 165 164 159 154 152 152 154 158 160 156 144 153 168 170 168 169 171 158 147 149 146 146 146 151 155 147 145 146 144 142 146 155 152 154 166 181 169 173 176 177 160 155 163 182 181 171 161 165 195 184 201 185 160 158 158 166 166 170 170 172 167 136 147 32 280 331
114 142 138 143 150 152 155 154 151 149 150 150 148 149 155 155 153 157 164 160 153 149 149 149 152 155 159 155 151 161 169 177 172 169 164 159 157 152 149 147 148 146 144 143 138 140 139 128 123 136 145 160 160 165 185 178 178 184 184 169 166 168 170 172 174 180 180 180 185 194 206 183 162 165 167 166 163 174 169 162 161 175 191 149 23
115 137 140 142 144 143 141 142 145 147 149 149 146 147 150 153 154 158 156 146 143 145 146 148 153 157 156 152 152 169 174 172 166 153 145 150 157 158 157 152 146 142 135 129 129 127 129 131 133 142 148 157 168 169 172 190 189 191 192 183 168 179 167 159 178 189 184 171 182 190 189 203 177 169 169 169 173 169 170 161 185 192 220 319 311
124 133 142 139 141 143 145 145 145 146 148 149 146 148 152 154 159 157 150 147 144 145 149 153 153 152 155 156 161 160 158 156 151 152 156 162 161 158 152 145 141 135 137 140 140 142 143 143 136 138 152 161 168 182 182 185 198 198 199 201 188 168 170 145 146 139 139 127 43 222 213 197 186 176 172 174 176 175 168 192 194 204 229 245 255
141 144 143 139 137 138 140 145 148 149 150 152 149 150 156 158 161 154 149 146 147 151 151 153 149 147 148 148 149 156 159 154 152 154 155 151 152 147 144 144 147 148 150 148 150 145 145 150 157 158 169 175 177 174 193 188 188 197 201 201 201 177 174 159 134 128 133 137 146 208 227 199 196 182 178 180 184 175 188 191 197 214 226 222 249
144 146 145 143 142 144 143 147 150 152 154 154 154 153 157 158 157 152 152 152 152 152 151 146 145 146 150 153 154 156 156 151 152 151 151 153 150 147 144 152 150 153 154 152 154 156 160 164 165 180 181 167 166 164 171 202 198 195 200 204 205 188 170 144 141 140 137 140 184 214 225 204 196 190 186 178 172 181 185 187 201 218 223 223 225
143 142 146 143 140 141 143 147 153 154 153 152 153 152 154 157 152 155 157 154 152 151 151 145 146 156 161 153 148 149 149 148 149 157 159 160 157 158 154 155 155 157 160 157 160 163 170 174 181 186 190 172 166 159 182 196 207 205 207 205 202 201 202 197 173 162 167 158 124 27 258 195 184 171 149 161 180 192 202 212 225 227 222 220 217
150 149 142 137 138 142 147 149 153 154 149 150 149 152 151 146 145 143 147 149 147 145 144 141 145 146 144 147 147 151 149 147 144 140 145 149 153 153 152 156 159 159 161 163 165 168 170 178 187 187 182 174 175 177 187 185 195 200 207 206 195 192 190 183 192 175 179 167 103 105 122 139 143 155 157 162 178 190 202 224 227 221 216 217 214
139 137 136 134 139 143 145 147 146 146 144 147 147 148 146 143 147 141 140 143 145 145 146 147 148 148 149 151 151 149 148 151 155 154 151 152 159 163 164 169 169 168 166 170 172 177 182 184 187 184 182 179 183 179 182 188 197 201 202 193 180 173 178 192 191 196 181 161 132 119 105 107 116 127 149 155 211 215 217 218 229 228 227 225 229
128 146 137 136 137 139 144 144 144 140 139 140 143 148 143 141 147 143 139 139 139 141 144 146 147 142 141 142 146 154 157 157 159 161 165 171 171 173 176 177 181 172 174 171 178 184 187 187 182 182 180 188 189 189 200 192 192 191 186 182 183 190 192 194 200 170 139 158 136 126 155 146 142 164 186 206 215 220 230 226 236 241 239 235 233
343 309 126 123 130 137 139 139 138 136 130 129 130 133 128 133 136 132 129 128 131 133 135 141 141 140 137 138 144 151 153 155 157 158 149 131 84 125 165 168 171 184 186 185 173 182 187 180 186 198 189 188 195 199 186 190 192 190 189 189 192 193 193 193 181 168 162 159 173 179 198 184 183 181 199 208 214 215 223 230 234 239 237 231 231
19 317 201 136 137 130 128 128 129 128 128 123 122 124 116 125 129 131 132 132 133 132 137 139 142 149 153 153 152 151 152 153 155 155 152 149 133 51 66 146 180 178 189 183 184 191 177 181 181 192 207 204 191 171 180 188 187 188 189 192 195 198 195 189 158 154 178 175 180 188 198 196 198 198 201 209 210 215 228 231 239 238 233 233 234